{"data":{"norad_id":66341,"intl_designator":"2025-253Y","name":"STARLINK-35522","alt_names":[],"object_type":"PAYLOAD","status":"ACTIVE","operator":null,"country":"US","launch_date":"2025-11-06","launch_site_code":"AFETR","launch_vehicle":null,"mission":null,"orbit_class":"UNKNOWN","rcs_meters":null,"size_class":null,"mass_kg":null,"dimensions":null,"purposes":["comms"],"wikipedia_slug":null,"has_3d_model":false,"image_url":null,"decayed_at":null,"tle_current":{"epoch":"2026-05-25T00:02:45.824064Z","epoch_age_seconds":74909,"freshness":"FRESH","line1":"1 66341U 25253Y   26145.00191926  .00014713  00000+0  54296-3 0  9997","line2":"2 66341  42.9986 141.6895 0000975 287.3008  72.7737 15.27589922 31910","mean_motion":15.27589922,"eccentricity":9.75e-5,"inclination_deg":42.9986,"raan_deg":141.6895,"arg_perigee_deg":287.3008,"mean_anomaly_deg":72.7737,"bstar":0.00054296,"rev_number":3191,"period_min":94.266136432393,"perigee_km":482.35042341539,"apogee_km":483.68834891069,"semimajor_km":6861.156386163,"source":"CELESTRAK","updated_at":"2026-05-25T13:38:21.171542Z"}}}